Tracking 35274 objects as of 10-Sep-2026
HD Live streaming from Space Station
objects crossing your sky now

COSMOS 1813 DEB


COSMOS 1813 DEB is no longer on orbit


NORAD ID: 18037
Int'l Code: 1987-004EQ
Launch date: January 15, 1987
Source: Commonwealth of Independent States (former USSR) (CIS)
Launch site: PLESETSK MISSILE AND SPACE COMPLEX (PKMTR)
Decay date: 1988-01-09

Note: This is SATELLITE DEBRIS
Your satellite tracking list
Your tracking list is empty




NASA's NSSDC Master Catalog

Two Line Element Set (TLE):
1 18037U 87004 EQ 88006.78900733  .01406563 +27000-5 +71094-3 0  9990
2 18037 072.7984 153.5472 0024824 027.6467 333.4995 16.19671976051923
Source of the keplerian elements: AFSPC